| time (UTC) | temp C | wind direction | speed KPH | gust KPH | rain 1hr cm | rain 24hr cm | rain mn cm | humidity % | barometer mb |
| 20260506004714 | 23 | 200 | 4.8 | 17.7 | 0.00 | 0.00 | 0.00 | 49 | 1009.7 |
| 20260506003657 | 23 | 200 | 4.8 | 16.1 | 0.00 | 0.00 | 0.00 | 47 | 1009.6 |
| 20260506002640 | 23 | 198 | 3.2 | 17.7 | 0.00 | 0.00 | 0.00 | 45 | 1009.4 |
| 20260506001623 | 23 | 198 | 4.8 | 16.1 | 0.00 | 0.00 | 0.00 | 44 | 1009.4 |
| 20260506000606 | 24 | 200 | 3.2 | 17.7 | 0.00 | 0.00 | 0.00 | 43 | 1009.2 |
| 20260505235549 | 24 | 244 | 4.8 | 12.9 | 0.00 | 0.00 | 0.00 | 42 | 1009.2 |
| 20260505234532 | 25 | 210 | 4.8 | 19.3 | 0.00 | 0.00 | 0.00 | 41 | 1009.1 |
| 20260505233515 | 25 | 210 | 4.8 | 20.9 | 0.00 | 0.00 | 0.00 | 41 | 1009.0 |
| 20260505232457 | 25 | 210 | 4.8 | 20.9 | 0.00 | 0.00 | 0.00 | 40 | 1008.9 |
| 20260505231414 | 26 | 210 | 4.8 | 22.5 | 0.00 | 0.00 | 0.00 | 38 | 1008.7 |
| 20260505230356 | 26 | 210 | 4.8 | 22.5 | 0.00 | 0.00 | 0.00 | 37 | 1008.7 |
| 20260505225337 | 26 | 230 | 4.8 | 22.5 | 0.00 | 0.00 | 0.00 | 36 | 1008.6 |
| 20260505224321 | 26 | 228 | 6.4 | 20.9 | 0.00 | 0.00 | 0.00 | 34 | 1008.5 |
| 20260505223304 | 26 | 226 | 6.4 | 20.9 | 0.00 | 0.00 | 0.00 | 34 | 1008.5 |
| 20260505222245 | 26 | 228 | 6.4 | 20.9 | 0.00 | 0.00 | 0.00 | 33 | 1008.5 |
| 20260505221228 | 27 | 232 | 6.4 | 20.9 | 0.00 | 0.00 | 0.00 | 33 | 1008.3 |
| 20260505220211 | 27 | 270 | 6.4 | 19.3 | 0.00 | 0.00 | 0.00 | 32 | 1008.3 |
| 20260505215155 | 27 | 220 | 8.0 | 25.7 | 0.00 | 0.00 | 0.00 | 31 | 1008.2 |
| 20260505214138 | 27 | 220 | 8.0 | 25.7 | 0.00 | 0.00 | 0.00 | 31 | 1008.2 |
| 20260505213336 | 27 | 220 | 8.0 | 25.7 | 0.00 | 0.00 | 0.00 | 31 | 1008.2 |
| 20260505212102 | 27 | 205 | 9.7 | 24.1 | 0.00 | 0.00 | 0.00 | 30 | 1008.1 |
| 20260505211044 | 28 | 239 | 8.0 | 27.4 | 0.00 | 0.00 | 0.00 | 30 | 1008.0 |
| 20260505210027 | 28 | 240 | 8.0 | 27.4 | 0.00 | 0.00 | 0.00 | 30 | 1007.9 |
| 20260505205222 | 28 | 210 | 8.0 | 29.0 | 0.00 | 0.00 | 0.00 | 32 | 1007.9 |
| 20260505203952 | 27 | 212 | 6.4 | 29.0 | 0.00 | 0.00 | 0.00 | 32 | 1007.9 |
| 20260505203149 | 28 | 212 | 8.0 | 27.4 | 0.00 | 0.00 | 0.00 | 33 | 1008.0 |
| 20260505201919 | 27 | 210 | 8.0 | 27.4 | 0.00 | 0.00 | 0.00 | 32 | 1008.0 |
| 20260505200903 | 27 | 210 | 6.4 | 29.0 | 0.00 | 0.00 | 0.00 | 33 | 1008.1 |
| 20260505195844 | 28 | 220 | 8.0 | 27.4 | 0.00 | 0.00 | 0.00 | 33 | 1008.2 |
| 20260505194826 | 27 | 220 | 8.0 | 27.4 | 0.00 | 0.00 | 0.00 | 33 | 1008.2 |
| 20260505193809 | 27 | 220 | 8.0 | 25.7 | 0.00 | 0.00 | 0.00 | 33 | 1008.3 |
| 20260505193006 | 28 | 220 | 8.0 | 24.1 | 0.00 | 0.00 | 0.00 | 34 | 1008.5 |
| 20260505191734 | 28 | 220 | 8.0 | 24.1 | 0.00 | 0.00 | 0.00 | 34 | 1008.6 |
| 20260505190713 | 28 | 220 | 8.0 | 24.1 | 0.00 | 0.00 | 0.00 | 35 | 1008.7 |
| 20260505185656 | 28 | 193 | 8.0 | 22.5 | 0.00 | 0.00 | 0.00 | 36 | 1008.9 |
| 20260505184640 | 28 | 219 | 8.0 | 24.1 | 0.00 | 0.00 | 0.00 | 36 | 1008.9 |
| 20260505183623 | 28 | 270 | 6.4 | 19.3 | 0.00 | 0.00 | 0.00 | 36 | 1009.2 |
| 20260505182819 | 28 | 166 | 6.4 | 20.9 | 0.00 | 0.00 | 0.00 | 37 | 1009.4 |
| 20260505181550 | 28 | 188 | 6.4 | 22.5 | 0.00 | 0.00 | 0.00 | 38 | 1009.4 |
| 20260505180534 | 27 | 180 | 6.4 | 22.5 | 0.00 | 0.00 | 0.00 | 38 | 1009.6 |
| 20260505175517 | 27 | 295 | 6.4 | 20.9 | 0.00 | 0.00 | 0.00 | 39 | 1009.6 |
| 20260505174408 | 27 | 153 | 6.4 | 0.0 | 0.00 | 0.00 | 0.00 | 40 | 1009.8 |
| 20260505173606 | 27 | 216 | 4.8 | 0.0 | 0.00 | 0.00 | 0.00 | 40 | 1009.8 |
| 20260505172330 | 27 | 192 | 4.8 | 0.0 | 0.00 | 0.00 | 0.00 | 41 | 1010.0 |
| 20260505171312 | 27 | 224 | 4.8 | 17.7 | 0.00 | 0.00 | 0.00 | 42 | 1010.0 |
| 20260505170255 | 26 | 176 | 4.8 | 0.0 | 0.00 | 0.00 | 0.00 | 42 | 1010.0 |
| 20260505165232 | 26 | 221 | 4.8 | 0.0 | 0.00 | 0.00 | 0.00 | 42 | 1010.1 |
| 20260505164214 | 26 | 153 | 4.8 | 16.1 | 0.00 | 0.00 | 0.00 | 44 | 1010.3 |
| 20260505163158 | 26 | 181 | 4.8 | 0.0 | 0.00 | 0.00 | 0.00 | 44 | 1010.4 |
| 20260505162136 | 26 | 187 | 4.8 | 0.0 | 0.00 | 0.00 | 0.00 | 44 | 1010.5 |
| 20260505161334 | 26 | 180 | 4.8 | 0.0 | 0.00 | 0.00 | 0.00 | 44 | 1010.7 |
| 20260505153216 | 25 | 197 | 3.2 | 0.0 | 0.00 | 0.00 | 0.00 | 47 | 1010.9 |
| 20260505151945 | 25 | 142 | 4.8 | 0.0 | 0.00 | 0.00 | 0.00 | 48 | 1010.9 |
| 20260505150928 | 24 | 177 | 3.2 | 0.0 | 0.00 | 0.00 | 0.00 | 48 | 1010.9 |
| 20260505124436 | 17 | 130 | 3.2 | 0.0 | 0.00 | 0.00 | 0.00 | 68 | 1011.4 |
| 20260505123419 | 17 | 258 | 1.6 | 8.0 | 0.00 | 0.00 | 0.00 | 69 | 1011.4 |
| 20260505122402 | 16 | 178 | 1.6 | 0.0 | 0.00 | 0.00 | 0.00 | 73 | 1011.5 |
| 20260505121344 | 16 | 175 | 1.6 | 0.0 | 0.00 | 0.00 | 0.00 | 75 | 1011.5 |
| 20260505120327 | 15 | 198 | 0.0 | 4.8 | 0.00 | 0.00 | 0.00 | 77 | 1011.4 |
| 20260505115527 | 15 | 166 | 0.0 | 11.3 | 0.00 | 0.00 | 0.00 | 78 | 1011.4 |
| 20260505114228 | 14 | 26 | 0.0 | 0.0 | 0.00 | 0.00 | 0.00 | 80 | 1011.4 |
| 20260505113425 | 13 | 0 | 0.0 | 0.0 | 0.00 | 0.00 | 0.00 | 81 | 1011.3 |
| 20260505112153 | 12 | 0 | 0.0 | 0.0 | 0.00 | 0.00 | 0.00 | 82 | 1011.3 |
| 20260505111136 | 12 | 0 | 0.0 | 0.0 | 0.00 | 0.00 | 0.00 | 83 | 1011.4 |
| 20260505110118 | 12 | 172 | 0.0 | 9.7 | 0.00 | 0.00 | 0.00 | 83 | 1011.4 |
| 20260505102010 | 12 | 0 | 0.0 | 0.0 | 0.00 | 0.00 | 0.00 | 83 | 1011.2 |
| 20260505100953 | 12 | 202 | 0.0 | 6.4 | 0.00 | 0.00 | 0.00 | 82 | 1011.0 |
| 20260505095936 | 12 | 172 | 0.0 | 0.0 | 0.00 | 0.00 | 0.00 | 81 | 1010.9 |
| 20260505095133 | 12 | 172 | 0.0 | 0.0 | 0.00 | 0.00 | 0.00 | 81 | 1010.7 |
| 20260505093902 | 12 | 172 | 0.0 | 0.0 | 0.00 | 0.00 | 0.00 | 81 | 1010.7 |
| 20260505092844 | 12 | 172 | 0.0 | 0.0 | 0.00 | 0.00 | 0.00 | 81 | 1010.6 |
| 20260505091826 | 12 | 172 | 0.0 | 0.0 | 0.00 | 0.00 | 0.00 | 81 | 1010.5 |
| 20260505090806 | 12 | 172 | 0.0 | 0.0 | 0.00 | 0.00 | 0.00 | 80 | 1010.5 |
| 20260505085750 | 13 | 204 | 0.0 | 0.0 | 0.00 | 0.00 | 0.00 | 80 | 1010.5 |
| 20260505084946 | 13 | 204 | 0.0 | 0.0 | 0.00 | 0.00 | 0.00 | 80 | 1010.5 |
| 20260505083931 | 13 | 202 | 0.0 | 0.0 | 0.00 | 0.00 | 0.00 | 80 | 1010.5 |
| 20260505082913 | 13 | 204 | 0.0 | 0.0 | 0.00 | 0.00 | 0.00 | 80 | 1010.6 |
| 20260505081854 | 13 | 212 | 0.0 | 0.0 | 0.00 | 0.00 | 0.00 | 80 | 1010.6 |
| 20260505080623 | 13 | 212 | 0.0 | 0.0 | 0.00 | 0.00 | 0.00 | 79 | 1010.6 |
| 20260505075606 | 12 | 196 | 0.0 | 0.0 | 0.00 | 0.00 | 0.00 | 79 | 1010.5 |
| 20260505074550 | 12 | 194 | 0.0 | 0.0 | 0.00 | 0.00 | 0.00 | 79 | 1010.4 |
| 20260505073533 | 12 | 152 | 0.0 | 0.0 | 0.00 | 0.00 | 0.00 | 78 | 1010.4 |
| 20260505072516 | 12 | 192 | 0.0 | 0.0 | 0.00 | 0.00 | 0.00 | 78 | 1010.3 |
| 20260505071716 | 12 | 192 | 0.0 | 0.0 | 0.00 | 0.00 | 0.00 | 78 | 1010.3 |
| 20260505070443 | 12 | 192 | 0.0 | 0.0 | 0.00 | 0.00 | 0.00 | 77 | 1010.3 |
| 20260505065425 | 12 | 176 | 0.0 | 0.0 | 0.00 | 0.00 | 0.00 | 77 | 1010.3 |
| 20260505064409 | 12 | 180 | 0.0 | 0.0 | 0.00 | 0.00 | 0.00 | 76 | 1010.3 |
| 20260505063350 | 12 | 172 | 0.0 | 0.0 | 0.00 | 0.00 | 0.00 | 76 | 1010.3 |
| 20260505062334 | 13 | 170 | 0.0 | 0.0 | 0.00 | 0.00 | 0.00 | 76 | 1010.3 |
| 20260505061316 | 13 | 170 | 0.0 | 0.0 | 0.00 | 0.00 | 0.00 | 75 | 1010.3 |
| 20260505060259 | 13 | 170 | 0.0 | 0.0 | 0.00 | 0.00 | 0.00 | 75 | 1010.3 |
| 20260505055456 | 13 | 178 | 0.0 | 0.0 | 0.00 | 0.00 | 0.00 | 74 | 1010.4 |
| 20260505054437 | 12 | 180 | 1.6 | 0.0 | 0.00 | 0.00 | 0.00 | 74 | 1010.5 |
| 20260505053204 | 12 | 178 | 1.6 | 0.0 | 0.00 | 0.00 | 0.00 | 73 | 1010.5 |
| 20260505052145 | 12 | 180 | 0.0 | 0.0 | 0.00 | 0.00 | 0.00 | 73 | 1010.5 |
| 20260505051101 | 12 | 182 | 1.6 | 0.0 | 0.00 | 0.00 | 0.00 | 72 | 1010.6 |
| 20260505040850 | 13 | 178 | 1.6 | 0.0 | 0.00 | 0.00 | 0.00 | 70 | 1010.6 |
| 20260505035833 | 13 | 178 | 0.0 | 0.0 | 0.00 | 0.00 | 0.00 | 69 | 1010.6 |
| 20260505034816 | 13 | 178 | 1.6 | 0.0 | 0.00 | 0.00 | 0.00 | 68 | 1010.6 |
| 20260505033759 | 13 | 178 | 1.6 | 0.0 | 0.00 | 0.00 | 0.00 | 68 | 1010.7 |
| 20260505032736 | 13 | 178 | 1.6 | 0.0 | 0.00 | 0.00 | 0.00 | 67 | 1010.7 |
| 20260505031719 | 15 | 178 | 1.6 | 0.0 | 0.00 | 0.00 | 0.00 | 66 | 1010.8 |
| 20260505030703 | 15 | 178 | 1.6 | 0.0 | 0.00 | 0.00 | 0.00 | 65 | 1010.8 |
| 20260505025642 | 15 | 232 | 0.0 | 4.8 | 0.00 | 0.00 | 0.00 | 64 | 1010.9 |
| 20260505024626 | 15 | 170 | 0.0 | 0.0 | 0.00 | 0.00 | 0.00 | 63 | 1010.9 |
| 20260505023823 | 15 | 170 | 1.6 | 0.0 | 0.00 | 0.00 | 0.00 | 62 | 1010.9 |
| 20260505022552 | 15 | 170 | 1.6 | 0.0 | 0.00 | 0.00 | 0.00 | 61 | 1011.0 |
| 20260505021536 | 16 | 170 | 1.6 | 0.0 | 0.00 | 0.00 | 0.00 | 60 | 1011.0 |
| 20260505020519 | 16 | 170 | 1.6 | 0.0 | 0.00 | 0.00 | 0.00 | 59 | 1011.0 |
| 20260505015717 | 15 | 172 | 1.6 | 0.0 | 0.00 | 0.00 | 0.00 | 57 | 1010.9 |
| 20260505014445 | 15 | 172 | 1.6 | 0.0 | 0.00 | 0.00 | 0.00 | 56 | 1010.8 |
| 20260505013427 | 15 | 172 | 1.6 | 0.0 | 0.00 | 0.00 | 0.00 | 55 | 1010.8 |
| 20260505012411 | 15 | 172 | 0.0 | 0.0 | 0.00 | 0.00 | 0.00 | 53 | 1010.6 |
| 20260505011354 | 15 | 172 | 0.0 | 0.0 | 0.00 | 0.00 | 0.00 | 51 | 1010.4 |
| 20260505010337 | 16 | 172 | 1.6 | 0.0 | 0.00 | 0.00 | 0.00 | 50 | 1010.4 |
| 20260505005318 | 16 | 206 | 0.0 | 0.0 | 0.00 | 0.00 | 0.00 | 49 | 1010.3 |